Theta_e
346 347 347 351 351 349 350 351 351 351 351 349 351 352 353 350 348 343 341 341 342 341 342 342 343 345 346 345 342 341 346 346 344 339 341 342 343 343 344 343 345 345 349
346 348 349 352 350 349 348 349 348 349 349 350 350 350 351 351 346 342 342 343 344 343 344 345 344 343 344 344 345 343 344 343 341 340 344 344 344 344 345 345 347 345 348
346 348 351 349 350 349 348 349 350 349 349 350 350 351 351 346 344 344 344 343 343 344 349 348 346 351 351 348 343 346 344 346 350 351 350 347 345 345 345 345 344 334 348
346 348 350 349 348 348 348 348 351 341 343 346 349 351 350 346 345 346 345 344 345 346 351 349 351 350 351 349 350 346 348 350 350 351 345 345 347 350 346 345 345 346 350
347 347 350 348 349 348 348 349 351 350 351 349 350 347 345 349 348 350 350 351 349 351 351 349 350 350 350 350 345 344 344 345 347 347 343 346 345 346 346 345 345 345 346
346 347 351 348 352 350 348 350 348 350 350 341 350 347 351 350 349 350 348 350 346 350 350 351 348 348 345 344 343 345 345 345 347 347 339 342 344 349 345 344 345 346 347
346 347 349 348 348 350 351 351 351 347 350 348 348 345 346 347 351 347 348 351 349 349 346 344 342 342 342 342 343 345 345 345 346 346 345 342 342 346 348 350 350 348 346
348 350 348 348 348 348 350 349 349 350 346 346 347 345 346 349 350 349 351 351 350 344 342 342 342 342 343 343 343 344 344 345 347 345 345 344 338 344 350 350 349 347 345
347 349 349 348 349 348 350 348 349 349 345 347 345 344 347 349 350 347 349 351 346 344 345 344 343 343 342 344 345 344 344 347 346 346 345 345 338 344 350 351 348 348 346
347 346 348 350 350 349 349 347 349 348 345 345 343 346 351 351 343 347 345 349 351 349 345 342 342 341 342 344 344 345 344 345 345 345 343 344 341 341 344 345 344 346 346
345 346 345 348 349 344 343 348 348 347 344 342 348 345 346 347 347 351 346 347 348 349 347 345 344 342 343 342 341 341 346 341 339 342 343 339 340 341 342 345 346 346 347
347 347 347 347 347 345 347 348 348 345 345 346 343 342 344 347 348 350 349 348 349 352 350 346 345 342 342 341 341 339 339 339 339 338 340 341 343 340 340 343 344 345 347
346 346 347 348 346 344 345 345 342 341 342 340 340 344 346 346 347 347 348 347 345 347 346 341 341 339 341 342 341 340 341 341 339 340 339 341 341 342 340 343 345 345 344
347 346 346 346 343 344 343 340 340 342 336 337 343 344 345 346 346 345 344 344 342 339 343 339 340 340 342 341 341 342 343 341 341 338 337 340 340 343 341 343 343 342 345
346 345 344 343 341 341 340 339 342 341 337 342 344 346 346 345 346 347 346 344 343 337 338 339 341 342 342 345 345 343 343 343 340 339 340 341 343 342 342 342 341 342 346
346 343 343 342 340 338 337 338 341 339 342 343 343 344 345 346 347 346 346 346 341 342 338 339 342 341 340 343 346 344 343 343 342 341 342 343 341 341 340 341 342 344 346
345 343 343 343 342 341 341 339 339 340 340 340 344 344 346 348 346 346 346 348 347 347 346 345 341 340 338 337 339 346 345 344 343 344 344 342 340 340 340 341 341 339 340
346 345 344 343 341 341 340 339 338 337 340 344 346 346 346 346 348 348 347 349 347 346 348 345 342 342 337 336 342 344 345 345 345 345 344 343 341 341 341 339 339 339 339
345 345 345 343 344 341 339 338 339 344 344 344 346 347 347 346 347 348 349 349 348 346 347 346 344 344 345 346 344 345 344 345 346 346 344 341 342 342 341 339 341 341 340
345 346 346 344 342 339 336 337 342 344 344 344 346 346 346 347 349 349 348 348 349 349 346 346 346 345 345 346 345 341 337 342 345 346 343 341 344 341 341 341 341 342 342
345 346 346 345 343 341 343 344 343 343 344 344 346 345 346 348 348 348 346 346 349 350 348 341 349 346 342 346 345 340 336 336 341 345 345 345 341 335 338 339 341 344 343
344 345 345 344 344 344 344 344 342 345 344 345 344 345 347 347 345 348 348 347 348 350 350 349 349 344 341 341 340 335 337 335 340 343 344 342 341 337 340 341 341 343 344
344 344 344 344 345 345 344 338 345 346 345 345 346 347 348 347 347 349 349 351 350 350 349 348 349 342 341 343 339 341 342 338 335 337 341 344 342 344 345 345 344 345 345
344 345 344 344 345 345 342 340 346 344 347 347 346 347 349 349 348 350 351 352 352 350 348 345 349 349 342 342 343 339 341 337 340 347 344 345 345 344 344 346 344 344 345
344 344 345 344 344 345 341 343 344 343 341 345 345 346 346 347 349 349 349 349 351 350 348 344 348 347 348 343 343 343 343 343 339 341 349 345 347 345 344 345 346 344 344
343 343 344 345 344 345 344 343 344 343 339 342 345 346 343 345 348 348 349 349 351 350 348 348 344 347 345 348 348 348 347 339 339 339 344 344 346 346 345 345 345 343 344
Wind_Speed
16 17 16 14 12 12 11 12 13 13 13 14 14 15 15 16 13 11 10 9 8 7 6 8 8 7 7 6 6 8 7 9 9 7 5 2 1 1 2 4 5 8 9
25 19 18 15 13 11 12 12 12 11 12 12 11 13 13 12 10 8 8 8 7 6 6 7 9 8 8 7 6 5 5 6 5 3 1 2 0 1 2 4 8 10 10
24 20 18 17 15 13 12 12 12 10 10 10 10 10 10 10 10 9 9 8 7 7 7 9 9 9 9 9 8 7 7 6 5 4 1 0 2 3 3 5 10 15 10
24 21 18 16 15 13 13 12 10 9 9 9 8 9 9 10 9 9 9 9 9 9 8 8 8 8 8 8 8 8 7 8 6 5 3 3 3 4 4 6 9 11 12
23 20 17 16 15 14 12 11 10 8 7 9 7 9 9 9 9 9 9 9 9 9 8 8 8 9 8 7 7 7 6 6 5 4 5 5 4 3 6 8 9 11 12
21 19 16 14 15 14 13 11 8 7 7 8 8 9 10 10 10 9 9 9 9 9 8 8 8 8 7 7 7 5 3 3 4 5 5 4 4 4 6 9 10 12 13
20 18 15 14 13 13 11 11 9 7 7 7 7 8 9 10 10 8 9 9 7 9 7 7 7 6 5 5 5 4 2 1 2 5 6 3 4 5 4 5 7 8 9
21 17 13 12 11 11 12 9 8 8 9 8 7 8 9 10 9 7 8 9 8 8 6 6 5 5 3 4 5 5 3 2 3 4 6 5 5 6 6 7 7 7 8
18 17 15 12 11 10 10 10 10 9 8 8 9 9 8 8 8 6 6 6 6 7 6 6 5 5 2 3 4 2 1 4 2 5 4 4 5 5 7 7 8 9 9
16 15 16 13 11 11 10 10 11 9 8 10 10 7 8 8 6 5 5 5 4 5 4 5 4 5 5 3 3 1 2 3 5 6 2 3 6 6 6 8 8 8 9
15 16 15 13 10 11 9 9 10 8 7 10 11 8 8 7 6 4 3 5 4 5 4 3 5 5 9 8 8 2 3 4 3 5 5 4 6 6 6 8 10 9 10
17 16 15 15 13 12 10 12 12 11 8 8 8 8 8 6 3 3 4 5 5 6 5 5 5 7 10 11 12 14 7 6 6 5 6 6 8 8 7 8 10 9 11
18 17 16 16 14 12 11 10 11 11 8 7 9 7 6 3 1 3 5 6 7 5 4 0 2 3 7 10 10 14 12 10 9 11 9 8 7 7 8 9 9 10 11
20 18 17 15 13 12 10 11 11 10 7 8 8 6 3 2 0 1 3 6 4 3 5 5 1 3 6 5 9 14 12 12 12 12 11 9 9 7 6 7 8 10 11
19 18 18 16 14 12 12 11 10 10 8 7 5 4 1 1 2 2 2 4 4 3 1 5 0 1 4 3 4 10 11 11 11 12 11 8 8 7 6 6 7 8 10
19 19 18 17 15 13 12 10 9 10 8 6 5 3 3 3 3 3 3 5 5 2 4 5 2 4 3 7 9 5 7 7 8 9 10 8 7 8 6 6 6 7 8
20 19 19 17 15 14 11 11 9 8 6 5 5 4 3 2 1 1 1 2 2 2 1 3 3 2 2 4 7 5 5 7 7 6 7 8 7 7 8 7 4 4 7
19 21 19 18 16 14 12 11 9 8 7 6 5 3 4 2 4 4 2 3 0 1 1 1 7 3 3 1 4 5 1 3 6 7 7 7 7 8 8 6 4 4 6
21 21 21 19 17 16 13 12 9 7 8 7 5 4 4 7 6 8 5 3 0 1 2 2 4 6 5 4 3 2 2 3 7 9 9 8 9 8 8 8 6 5 6
21 22 23 20 17 16 13 12 9 9 7 6 7 6 3 8 9 8 8 6 3 2 3 2 3 5 9 7 2 1 1 3 4 9 10 10 9 10 10 10 9 8 8
22 24 25 23 20 18 16 14 11 10 9 7 8 7 9 9 10 9 7 6 4 4 4 4 2 1 1 3 1 2 4 3 5 7 7 9 10 11 14 13 11 8 9
24 26 27 25 23 20 17 16 11 7 7 8 7 8 6 8 7 7 7 7 6 6 5 3 4 2 1 3 2 1 2 2 4 4 8 10 9 9 10 12 11 12 11
23 26 26 28 24 21 18 17 13 7 6 7 9 8 9 9 7 8 7 6 6 6 6 5 4 5 3 3 5 1 1 2 2 1 2 3 7 8 6 7 10 12 12
26 26 26 28 25 21 19 20 17 13 9 6 7 6 8 9 8 8 7 7 7 7 6 5 5 5 5 4 5 4 1 1 2 1 1 3 6 10 10 10 10 10 10
23 26 27 28 27 25 22 22 21 17 14 10 6 8 11 11 10 9 8 10 8 7 8 6 5 5 4 4 4 4 2 3 2 2 1 2 4 8 9 11 12 9 9
21 23 26 27 27 29 24 24 23 19 16 13 12 11 11 12 14 12 10 8 8 8 7 6 7 4 6 5 5 3 4 3 4 3 1 3 3 5 9 10 10 10 8
Wind_Direction
167 159 153 155 141 131 129 125 123 123 128 130 127 122 132 140 143 146 141 137 141 151 156 156 150 148 166 176 194 206 237 244 251 282 313 345 95 123 133 148 137 137 150
157 156 149 155 146 141 137 135 129 131 135 133 131 132 137 138 145 148 153 138 144 148 150 144 138 143 156 159 165 172 180 188 205 204 305 37 42 133 116 154 143 155 161
154 151 148 152 153 148 146 144 140 140 136 133 137 138 139 136 139 141 140 149 146 135 138 130 134 130 131 140 151 162 167 149 146 150 126 179 130 105 114 139 155 171 165
154 152 151 150 153 153 146 146 142 142 131 131 138 134 135 141 140 141 142 143 141 142 137 132 128 128 131 140 143 152 149 136 134 139 148 133 135 159 123 151 159 170 173
157 156 156 156 160 154 148 147 146 140 137 133 136 125 139 137 145 142 139 139 131 133 141 140 135 125 125 132 143 154 158 147 139 159 159 152 142 155 149 153 159 172 172
158 159 160 166 159 155 158 157 161 154 143 145 144 136 140 140 137 140 135 139 134 127 134 136 128 120 126 134 143 153 156 160 178 196 157 164 169 161 161 155 159 175 174
156 156 161 160 154 153 155 160 165 156 148 148 141 139 136 136 139 131 135 132 135 137 138 137 133 131 138 149 163 170 188 246 202 199 199 185 185 177 192 180 166 174 182
154 152 152 152 152 154 152 161 170 159 155 150 138 133 136 138 131 129 133 131 140 141 147 138 118 100 111 137 168 185 227 226 254 196 201 196 178 183 197 206 194 200 199
155 153 148 152 155 158 156 176 168 157 146 132 121 127 128 128 134 146 140 143 149 147 145 139 113 114 155 123 148 146 167 232 240 206 232 204 187 191 207 209 218 212 212
159 154 153 155 159 158 161 171 162 159 138 123 121 137 116 123 119 127 152 149 155 149 161 144 131 187 152 118 122 150 274 253 190 209 239 235 200 209 221 227 225 226 229
163 164 164 163 165 162 154 157 160 169 141 136 132 142 131 133 136 139 139 149 176 188 172 171 176 207 190 192 206 187 308 311 304 207 221 286 245 232 231 235 238 234 237
163 164 166 167 181 174 170 164 167 172 161 138 140 138 125 123 134 183 190 176 184 187 186 199 201 182 201 211 213 217 248 255 260 202 234 277 250 242 237 242 245 237 241
166 164 168 171 176 177 179 169 170 170 160 148 143 144 128 122 68 244 215 195 206 192 208 54 168 176 202 202 211 216 237 241 238 229 250 262 266 247 239 234 242 247 245
172 170 172 175 177 176 179 173 175 173 165 156 154 160 141 124 98 106 203 191 200 217 183 147 140 190 167 189 216 222 227 231 237 230 251 268 264 247 244 230 236 248 253
178 179 178 180 180 175 175 181 190 181 172 164 174 174 169 195 225 238 239 217 216 192 172 183 30 98 153 119 166 206 216 216 222 238 254 269 240 227 218 220 236 250 262
182 184 180 182 181 175 178 189 196 184 177 188 200 237 247 223 234 243 247 263 244 272 221 228 257 178 114 97 80 138 189 207 225 242 248 236 211 204 203 207 234 262 265
189 184 184 182 183 187 190 195 192 192 211 243 244 226 206 187 207 232 206 297 274 253 223 181 170 225 206 102 34 87 170 216 236 242 223 210 206 202 198 205 227 272 279
193 194 188 186 187 188 195 194 203 221 234 229 208 196 212 233 238 229 266 310 97 205 290 268 209 272 42 309 12 42 81 198 217 219 207 214 205 205 206 205 220 268 286
202 195 195 194 197 189 195 190 206 220 240 222 225 227 244 230 224 233 239 252 260 341 319 307 238 261 291 298 264 318 316 250 221 222 223 223 216 209 217 217 223 249 276
203 199 200 196 195 189 186 198 220 227 223 221 229 234 268 220 217 229 228 243 244 263 268 256 259 277 279 293 174 70 319 249 229 233 239 238 227 215 228 229 231 251 273
203 199 202 198 197 195 192 202 223 233 223 251 240 250 280 227 225 234 237 247 255 271 258 228 249 228 326 162 175 253 301 285 237 232 220 225 243 239 239 229 231 251 265
202 201 205 208 202 203 208 214 215 228 228 251 249 252 233 198 208 237 263 255 259 255 235 226 232 260 222 200 127 105 10 292 220 216 230 241 243 217 216 218 236 256 257
206 203 209 209 206 207 209 208 210 218 225 234 242 236 188 201 219 250 255 263 261 258 258 250 241 234 222 217 211 128 107 244 334 265 235 196 206 201 203 225 231 238 249
207 207 210 206 206 209 208 205 209 216 213 222 235 234 215 223 234 238 253 258 274 269 268 252 225 230 212 189 182 211 227 148 157 0 299 191 210 215 210 221 232 242 250
207 209 210 211 211 211 213 216 219 225 228 232 252 241 249 241 245 243 249 265 264 272 256 235 211 193 203 208 204 184 172 159 146 120 226 214 219 209 207 225 240 243 250
211 213 212 214 215 211 219 221 223 229 229 238 250 256 261 246 247 252 245 256 254 271 252 233 215 230 216 238 269 237 210 169 196 154 191 237 215 213 221 232 233 246 247